• In Uzbekistan
  • List of Countries
  • For 7 days
  • Water Temperature
  • Satellite Maps
  • Weather Map
  • Weather Widgets
  • user-avatar
    Login

    Hourly Weather Karasha

    Today, 14 December, Friday

    Time Temperature Precipitation Wind Pressure Humidity
    00:00 -6°C° 0 mm 2 mps 628 mmHg 63%
    01:00 -6°C° 0 mm 2 mps 629 mmHg 63%
    02:00 -6°C° 0 mm 2 mps 629 mmHg 64%
    03:00 -6°C° 0 mm 2 mps 629 mmHg 62%
    04:00 -6°C° 0 mm 2 mps 629 mmHg 64%
    05:00 -6°C° 0 mm 2 mps 629 mmHg 65%
    06:00 -6°C° 0 mm 2 mps 629 mmHg 66%
    07:00 -6°C° 0 mm 2 mps 630 mmHg 66%
    08:00 -5°C° 0 mm 2 mps 630 mmHg 65%
    09:00 -4°C° 0 mm 2 mps 630 mmHg 63%
    10:00 -4°C° 0 mm 2 mps 630 mmHg 62%
    11:00 -3°C° 0 mm 2 mps 631 mmHg 62%
    12:00 -2°C° 0 mm 3 mps 631 mmHg 62%
    13:00 -3°C° 0 mm 2 mps 631 mmHg 65%
    14:00 -3°C° 0 mm 2 mps 630 mmHg 68%
    15:00 -4°C° 0 mm 2 mps 630 mmHg 71%
    16:00 -4°C° 0 mm 2 mps 630 mmHg 74%
    17:00 -5°C° 0 mm 2 mps 630 mmHg 77%
    18:00 -6°C° 0 mm 2 mps 630 mmHg 80%
    19:00 -6°C° 0 mm 2 mps 630 mmHg 79%
    20:00 -4°C° 0 mm 1 mps 630 mmHg 79%
    21:00 -4°C° 0 mm 1 mps 630 mmHg 78%
    22:00 -4°C° 0 mm 1 mps 630 mmHg 77%
    23:00 -6°C° 0 mm 1 mps 630 mmHg 75%

    Tomorrow, 15 December, Saturday

    Time Temperature Precipitation Wind Pressure Humidity
    00:00 -6°C° 0 mm 1 mps 630 mmHg 73%
    01:00 -6°C° 0 mm 1 mps 630 mmHg 72%
    02:00 -6°C° 0 mm 1 mps 630 mmHg 70%
    03:00 -6°C° 0 mm 1 mps 630 mmHg 69%
    04:00 -6°C° 0 mm 1 mps 630 mmHg 68%
    05:00 -6°C° 0 mm 1 mps 630 mmHg 67%
    06:00 -6°C° 0 mm 1 mps 630 mmHg 66%
    07:00 -4°C° 0 mm 1 mps 631 mmHg 64%
    08:00 -3°C° 0 mm 1 mps 631 mmHg 62%
    09:00 -2°C° 0 mm 1 mps 632 mmHg 59%
    10:00 -3°C° 0 mm 2 mps 632 mmHg 58%
    11:00 -2°C° 0 mm 2 mps 632 mmHg 57%
    12:00 -1°C° 0 mm 2 mps 632 mmHg 56%
    13:00 -1°C° 0 mm 2 mps 632 mmHg 59%
    14:00 -1°C° 0 mm 2 mps 632 mmHg 62%
    15:00 -2°C° 0 mm 2 mps 632 mmHg 65%
    16:00 -2°C° 0 mm 2 mps 632 mmHg 68%
    17:00 -3°C° 0 mm 2 mps 632 mmHg 71%
    18:00 -4°C° 0 mm 2 mps 631 mmHg 74%
    19:00 -4°C° 0 mm 2 mps 631 mmHg 74%
    20:00 -4°C° 0 mm 2 mps 631 mmHg 73%
    21:00 -4°C° 0 mm 2 mps 631 mmHg 73%
    22:00 -4°C° 0 mm 2 mps 631 mmHg 73%
    23:00 -3°C° 0 mm 2 mps 631 mmHg 73%

    Day after tomorrow, 16 December, Sunday

    Time Temperature Precipitation Wind Pressure Humidity
    00:00 -3°C° 0 mm 2 mps 630 mmHg 73%
    01:00 -3°C° 0 mm 2 mps 630 mmHg 74%
    02:00 -3°C° 0 mm 2 mps 630 mmHg 74%
    03:00 -3°C° 0 mm 2 mps 630 mmHg 74%
    04:00 -4°C° 0 mm 2 mps 630 mmHg 76%
    05:00 -4°C° 0 mm 2 mps 630 mmHg 77%
    06:00 -4°C° 0 mm 2 mps 630 mmHg 78%
    07:00 -1°C° 0 mm 1 mps 631 mmHg 75%
    08:00 -1°C° 0 mm 1 mps 631 mmHg 72%
    09:00 0°C° 0 mm 1 mps 632 mmHg 69%
    10:00 +1°C° 0 mm 1 mps 632 mmHg 68%
    11:00 +1°C° 0 mm 1 mps 632 mmHg 66%
    12:00 +1°C° 0 mm 2 mps 632 mmHg 65%
    13:00 +2°C° 0 mm 1 mps 632 mmHg 68%
    14:00 +1°C° 0 mm 1 mps 632 mmHg 71%
    15:00 +1°C° 0 mm 1 mps 632 mmHg 74%
    16:00 0°C° 0 mm 1 mps 632 mmHg 78%
    17:00 -1°C° 0 mm 1 mps 632 mmHg 82%
    18:00 -2°C° 0 mm 1 mps 632 mmHg 85%
    19:00 -4°C° 0 mm 2 mps 632 mmHg 85%
    20:00 -4°C° 0 mm 2 mps 632 mmHg 84%
    21:00 -4°C° 0 mm 2 mps 632 mmHg 83%
    22:00 -4°C° 0 mm 2 mps 632 mmHg 83%
    23:00 -4°C° 0 mm 2 mps 632 mmHg 83%

    17 December, Monday

    Time Temperature Precipitation Wind Pressure Humidity
    00:00 -4°C° 0 mm 2 mps 632 mmHg 82%
    01:00 -4°C° 0 mm 2 mps 632 mmHg 82%
    02:00 -4°C° 0 mm 2 mps 632 mmHg 81%
    03:00 -4°C° 0 mm 2 mps 632 mmHg 80%
    04:00 -4°C° 0 mm 2 mps 632 mmHg 80%
    05:00 -4°C° 0 mm 2 mps 632 mmHg 80%
    06:00 -4°C° 0 mm 2 mps 632 mmHg 80%
    07:00 -4°C° 0 mm 2 mps 632 mmHg 79%
    08:00 -3°C° 0 mm 2 mps 632 mmHg 78%
    09:00 -3°C° 0 mm 2 mps 632 mmHg 78%
    10:00 -2°C° 0 mm 2 mps 632 mmHg 77%
    11:00 -1°C° 0 mm 2 mps 632 mmHg 77%
    12:00 -1°C° 0 mm 2 mps 632 mmHg 76%
    13:00 -1°C° 0 mm 2 mps 632 mmHg 78%
    14:00 -1°C° 0 mm 2 mps 631 mmHg 80%
    15:00 -2°C° 0 mm 2 mps 631 mmHg 82%
    16:00 -3°C° 0 mm 2 mps 631 mmHg 84%
    17:00 -3°C° 0 mm 2 mps 631 mmHg 85%
    18:00 -4°C° 0 mm 2 mps 631 mmHg 86%
    19:00 -4°C° 0 mm 2 mps 631 mmHg 85%
    20:00 -4°C° 0 mm 2 mps 631 mmHg 83%
    21:00 -4°C° 0 mm 2 mps 631 mmHg 82%
    22:00 -4°C° 0 mm 2 mps 631 mmHg 82%
    23:00 -4°C° 0 mm 2 mps 631 mmHg 81%

    18 December, Tuesday

    Time Temperature Precipitation Wind Pressure Humidity
    00:00 -4°C° 0 mm 2 mps 630 mmHg 81%
    01:00 -4°C° 0 mm 2 mps 630 mmHg 81%
    02:00 -4°C° 0 mm 2 mps 630 mmHg 81%
    03:00 -4°C° 0 mm 2 mps 630 mmHg 82%
    04:00 -2°C° 0 mm 1 mps 630 mmHg 82%
    05:00 -2°C° 0 mm 1 mps 630 mmHg 83%
    06:00 -2°C° 0 mm 1 mps 630 mmHg 83%
    07:00 -2°C° 0.1 mm 1 mps 630 mmHg 84%
    08:00 -1°C° 0.1 mm 1 mps 630 mmHg 85%
    09:00 -1°C° 0.1 mm 1 mps 631 mmHg 85%
    10:00 -1°C° 0.1 mm 1 mps 630 mmHg 85%
    11:00 -1°C° 0.1 mm 1 mps 630 mmHg 84%
    12:00 0°C° 0.1 mm 1 mps 630 mmHg 83%
    13:00 0°C° 0.2 mm 1 mps 630 mmHg 85%
    14:00 -1°C° 0.2 mm 1 mps 630 mmHg 86%
    15:00 -1°C° 0.2 mm 1 mps 630 mmHg 88%
    16:00 -1°C° 0.2 mm 1 mps 630 mmHg 90%
    17:00 -2°C° 0.2 mm 1 mps 630 mmHg 91%
    18:00 -2°C° 0.2 mm 1 mps 630 mmHg 93%
    19:00 -2°C° 0.2 mm 1 mps 631 mmHg 92%
    20:00 -2°C° 0.2 mm 1 mps 631 mmHg 92%
    21:00 -2°C° 0.2 mm 1 mps 631 mmHg 91%
    22:00 -2°C° 0.1 mm 1 mps 631 mmHg 90%
    23:00 -2°C° 0.1 mm 1 mps 631 mmHg 90%

    19 December, Wednesday

    Time Temperature Precipitation Wind Pressure Humidity
    00:00 -2°C° 0.1 mm 1 mps 631 mmHg 89%
    01:00 -2°C° 0.1 mm 1 mps 631 mmHg 88%
    02:00 -2°C° 0.1 mm 1 mps 631 mmHg 88%
    03:00 -2°C° 0.1 mm 1 mps 631 mmHg 88%
    04:00 -2°C° 0 mm 1 mps 631 mmHg 88%
    05:00 -2°C° 0 mm 1 mps 631 mmHg 87%
    06:00 -3°C° 0 mm 1 mps 631 mmHg 87%
    07:00 -2°C° 0 mm 1 mps 631 mmHg 85%
    08:00 -2°C° 0 mm 1 mps 632 mmHg 83%
    09:00 -1°C° 0 mm 1 mps 632 mmHg 82%
    10:00 -1°C° 0 mm 1 mps 632 mmHg 80%
    11:00 0°C° 0 mm 1 mps 632 mmHg 78%
    12:00 +1°C° 0 mm 1 mps 632 mmHg 77%
    13:00 0°C° 0 mm 1 mps 632 mmHg 79%
    14:00 0°C° 0 mm 1 mps 632 mmHg 81%
    15:00 0°C° 0 mm 1 mps 632 mmHg 82%
    16:00 -1°C° 0 mm 1 mps 632 mmHg 84%
    17:00 -2°C° 0 mm 1 mps 632 mmHg 86%
    18:00 -3°C° 0 mm 1 mps 632 mmHg 88%
    19:00 -3°C° 0 mm 1 mps 632 mmHg 86%
    20:00 -3°C° 0 mm 1 mps 632 mmHg 84%
    21:00 -3°C° 0 mm 1 mps 632 mmHg 82%
    22:00 -3°C° 0 mm 1 mps 632 mmHg 81%
    23:00 -3°C° 0 mm 1 mps 632 mmHg 80%
    Show more